Location: Paris
(48.8566°N, 2.3522°E)
Time: 19:41:59
(UTC+02:00)

N. Korean satellite - Visible Passes

Search period start: 24 September 2021 00:00
Search period end: 04 October 2021 00:00
Orbit: 448 x 498 km, 97.3° (Epoch: 23 September)

Date Brightness Start Highest point End Pass type
(mag) Time Alt. Az. Time Alt. Az. Time Alt. Az.
24 Sep 10.0 06:01:45 10° ENE 06:02:58 11° E 06:04:11 10° ESE visible
25 Sep 7.2 07:05:16 10° NNE 07:08:47 62° E 07:12:21 10° S visible
26 Sep 8.8 06:37:46 10° NE 06:40:55 29° E 06:44:05 10° SSE visible
27 Sep 9.8 06:10:49 10° NE 06:12:56 15° E 06:15:02 10° SE visible
29 Sep 8.2 06:47:23 10° NNE 06:50:46 38° E 06:54:09 10° SSE visible
30 Sep 9.6 06:20:09 10° NE 06:22:47 19° E 06:25:25 10° SE visible
02 Oct 7.6 06:56:59 10° NNE 07:00:30 50° E 07:04:03 10° S visible
03 Oct 9.2 06:29:31 10° NE 06:32:31 24° E 06:35:33 10° SSE visible
